Bloomington, IN

2:51 AM EDT on June 24, 2017 (GMT -0400)
Monroe County

Weather History for KBMG - December, 2006

Change the Weather History Date:

Tuesday, December 26, 2006

  Actual Average Record
Temperature  
Mean Temperature 34 °F 30 °F  
Max Temperature 37 °F 38 °F 66 °F (2016)
Min Temperature 32 °F 22 °F 1 °F (2000)
Degree Days  
Heating Degree Days 30 35  
Month to date heating degree days 841  
Since 1 July heating degree days 1897  
Cooling Degree Days 0 0  
Month to date cooling degree days 0  
Year to date cooling degree days 927  
Moisture  
Dew Point 30 °F    
Average Humidity 80    
Maximum Humidity 89    
Minimum Humidity 70    
Precipitation  
Precipitation 0.22 in 0.14 in 0.79 in (2015)
Month to date precipitation 2.89  
Year to date precipitation 46.90  
Sea Level Pressure  
Sea Level Pressure 29.86 in    
Wind  
Wind Speed 8 mph (WNW)    
Max Wind Speed 12 mph    
Max Gust Speed 18 mph    
Visibility 8 miles    
Events Rain , Snow    
T = Trace of Precipitation, MM = Missing Value Source: NWS Daily Summary

Daily Weather History Graph

Daily Weather History Graph

Search for Another Location

Airport or City:

Trip Planner

Search our weather history database for the weather conditions in past years. The results will help you decide how hot, cold, wet, or windy it might be!

Date:

Astronomy

Dec. 26, 2006 Rise Set
Actual Time 8:04 AM EST 5:29 PM EST
Civil Twilight 7:34 AM EST 6:00 PM EST
Nautical Twilight 7:00 AM EST 6:33 PM EST
Astronomical Twilight 6:28 AM EST 7:06 PM EST
Moon 12:09 PM EST (12/26) No Moon Set
Length of Visible Light 10h 25m
Length of Day
9h 25m
Waxing Crescent, 40% of the Moon is Illuminated
Dec 26
Waxing Crescent
Dec 27
First Quarter
Jan 3
Full
Jan 11
Last Quarter
Jan 18
New

Hourly Weather History & Observations

Time (EST) Temp. Windchill Dew Point Humidity Pressure Visibility Wind Dir Wind Speed Gust Speed Precip Events Conditions
12:27 AM 35.6 °F 29.2 °F 32.0 °F 87% 29.63 in 1.8 mi NW 8.1 mph - 0.01 in Snow Light Snow
12:53 AM 35.1 °F 30.1 °F 32.0 °F 89% 29.64 in 1.5 mi NNW 5.8 mph - 0.02 in Snow Light Snow
1:41 AM 35.6 °F 28.6 °F 32.0 °F 87% 29.64 in 2.0 mi NNW 9.2 mph - 0.00 in Snow Light Snow
1:53 AM 35.1 °F 29.3 °F 32.0 °F 89% 29.65 in 3.0 mi NW 6.9 mph - 0.01 in Snow Light Snow
2:53 AM 37.0 °F 30.4 °F 33.1 °F 86% 29.67 in 6.0 mi NW 9.2 mph - 0.06 in Rain Light Rain
3:33 AM 37.4 °F 30.8 °F 33.8 °F 87% 29.67 in 7.0 mi NNW 9.2 mph - 0.05 in   Overcast
3:53 AM 37.9 °F 30.9 °F 34.0 °F 86% 29.69 in 7.0 mi NW 10.4 mph - 0.07 in   Overcast
4:53 AM 37.9 °F 30.9 °F 33.1 °F 83% 29.71 in 9.0 mi NW 10.4 mph 18.4 mph 0.05 in   Overcast
5:06 AM 37.4 °F 30.8 °F 33.8 °F 87% 29.71 in 10.0 mi NNW 9.2 mph 17.3 mph N/A   Overcast
5:23 AM 37.4 °F 30.3 °F 33.8 °F 87% 29.72 in 10.0 mi NNW 10.4 mph - N/A   Overcast
5:53 AM 37.9 °F 32.1 °F 32.0 °F 79% 29.75 in 10.0 mi NNW 8.1 mph - N/A   Overcast
6:53 AM 37.0 °F 30.4 °F 32.0 °F 82% 29.80 in 9.0 mi NW 9.2 mph 16.1 mph N/A   Overcast
8:53 AM 36.0 °F 29.6 °F 30.9 °F 82% 29.88 in 10.0 mi WNW 8.1 mph - N/A   Overcast
9:53 AM 36.0 °F 29.6 °F 30.0 °F 79% 29.91 in 10.0 mi NW 8.1 mph - N/A   Overcast
10:53 AM 36.0 °F 31.1 °F 30.0 °F 79% 29.93 in 10.0 mi WNW 5.8 mph - N/A   Overcast
11:53 AM 36.0 °F 29.0 °F 30.0 °F 79% 29.93 in 10.0 mi WNW 9.2 mph - 0.00 in   Overcast
1:53 PM 37.0 °F 31.6 °F 30.0 °F 76% 29.93 in 10.0 mi Variable 6.9 mph - N/A   Overcast
2:53 PM 37.0 °F 31.6 °F 28.9 °F 73% 29.94 in 10.0 mi WNW 6.9 mph - N/A   Overcast
3:53 PM 36.0 °F 28.0 °F 28.9 °F 76% 29.97 in 10.0 mi West 11.5 mph - N/A   Overcast
4:28 PM 35.6 °F 27.5 °F 28.4 °F 75% 29.97 in 10.0 mi WNW 11.5 mph - N/A   Overcast
4:53 PM 36.0 °F 30.3 °F 28.0 °F 73% 29.99 in 10.0 mi West 6.9 mph - N/A   Overcast
5:53 PM 35.1 °F 29.3 °F 28.0 °F 76% 30.01 in 10.0 mi West 6.9 mph - N/A   Overcast
6:53 PM 35.1 °F 28.6 °F 26.1 °F 70% 30.04 in 10.0 mi WNW 8.1 mph - N/A   Overcast
7:53 PM 34.0 °F 28.0 °F 26.1 °F 73% 30.04 in 10.0 mi WNW 6.9 mph - N/A   Overcast
8:53 PM 33.1 °F 28.7 °F 25.0 °F 72% 30.05 in 10.0 mi West 4.6 mph - N/A   Scattered Clouds
9:02 PM 33.8 °F 29.6 °F 26.6 °F 75% 30.03 in 10.0 mi West 4.6 mph - N/A   Mostly Cloudy
9:53 PM 33.1 °F 30.0 °F 26.1 °F 75% 30.04 in 10.0 mi SW 3.5 mph - N/A   Overcast
10:53 PM 32.0 °F 27.5 °F 25.0 °F 75% 30.06 in 10.0 mi SW 4.6 mph - N/A   Partly Cloudy
11:53 PM 32.0 °F 26.4 °F 26.1 °F 79% 30.06 in 10.0 mi SW 5.8 mph - 0.01 in   Clear